GW0983 Weather Reports


Display with metric or nautical units.
time (UTC)temp
F
wind
direction
speed
MPH
gust
MPH
rain 1hr
in
rain 24hr
in
rain mn
in
humidity
%
barometer
mb
20260503184043 52 207 3.0 9.0 0.00 0.00 0.00 89 1016.5
20260503183541 52 212 4.0 15.0 0.00 0.00 0.00 88 1016.5
20260503183106 52 229 4.0 15.0 0.00 0.00 0.00 89 1016.6
20260503182540 52 247 5.0 15.0 0.00 0.00 0.00 87 1016.5
20260503182043 53 217 4.0 12.0 0.00 0.00 0.00 86 1016.5
20260503181603 54 230 4.0 12.0 0.00 0.00 0.00 87 1016.4
20260503181043 54 275 5.0 12.0 0.00 0.00 0.00 86 1016.5
20260503180542 53 168 5.0 12.0 0.00 0.00 0.00 87 1016.4
20260503180056 52 123 4.0 13.0 0.00 0.00 0.00 89 1016.4
20260503175545 52 214 5.0 13.0 0.00 0.00 0.00 91 1016.5
20260503175043 51 225 6.0 12.0 0.00 0.00 0.00 93 1016.4
20260503174553 51 263 5.0 12.0 0.00 0.00 0.00 93 1016.4
20260503174042 51 226 4.0 12.0 0.00 0.00 0.00 93 1016.3
20260503173542 51 268 7.0 12.0 0.00 0.00 0.00 93 1016.1
20260503173058 51 227 4.0 12.0 0.00 0.00 0.00 93 1016.3
20260503172544 50 219 4.0 12.0 0.00 0.00 0.00 92 1016.5
20260503172042 51 239 4.0 12.0 0.00 0.00 0.00 92 1016.2
20260503171552 51 221 5.0 10.0 0.00 0.00 0.00 91 1016.4
20260503171042 51 225 4.0 11.0 0.00 0.00 0.00 91 1016.4
20260503170541 51 196 5.0 12.0 0.00 0.00 0.00 91 1016.4
20260503150542 50 232 4.0 9.0 0.00 0.00 0.00 91 1015.6
20260503131044 48 238 4.0 8.0 0.00 0.00 0.00 93 1014.4
20260503130543 48 286 3.0 9.0 0.00 0.00 0.00 94 1014.3
20260503110543 48 243 4.0 12.0 0.00 0.00 0.00 93 1014.4
20260503081617 48 228 3.0 9.0 0.00 0.00 0.00 94 1015.0
20260503081041 48 221 4.0 9.0 0.00 0.00 0.00 94 1015.0
20260503080542 49 265 3.0 8.0 0.00 0.00 0.00 94 1015.0
20260503080108 49 216 2.0 10.0 0.00 0.00 0.00 94 1015.1
20260503072539 49 208 3.0 9.0 0.00 0.00 0.00 93 1015.0
20260503072042 49 160 5.0 9.0 0.00 0.00 0.00 93 1015.1
20260503071551 49 241 4.0 8.0 0.00 0.00 0.00 93 1015.0
20260503071042 49 201 4.0 9.0 0.00 0.00 0.00 93 1015.1
20260503070538 49 225 3.0 9.0 0.00 0.00 0.00 93 1015.1
20260503055041 49 215 3.0 10.0 0.00 0.00 0.00 93 1015.5
20260503054554 49 229 4.0 10.0 0.00 0.00 0.00 93 1015.5
20260503054039 49 275 3.0 10.0 0.00 0.00 0.00 93 1015.6
20260503053542 49 229 5.0 11.0 0.00 0.00 0.00 93 1015.6
20260503053047 49 257 4.0 11.0 0.00 0.00 0.00 93 1015.5
20260503052540 49 265 4.0 13.0 0.00 0.00 0.00 93 1015.5
20260503052043 49 213 3.0 13.0 0.00 0.00 0.00 93 1015.7
20260503051549 49 242 3.0 10.0 0.00 0.00 0.00 93 1015.5
20260503051039 49 277 5.0 10.0 0.00 0.00 0.00 93 1015.5
20260503050542 49 178 4.0 10.0 0.00 0.00 0.00 93 1015.5
20260503050054 49 221 3.0 8.0 0.00 0.00 0.00 93 1015.5
20260503045539 49 192 4.0 11.0 0.00 0.00 0.00 93 1015.5
20260503045043 49 187 5.0 11.0 0.00 0.00 0.00 93 1015.6
20260503044554 49 187 3.0 10.0 0.00 0.00 0.00 94 1015.5
20260503044042 49 202 4.0 10.0 0.00 0.00 0.00 94 1015.5
20260503043542 49 247 5.0 9.0 0.00 0.00 0.00 94 1015.4
20260503043050 49 218 4.0 9.0 0.00 0.00 0.00 94 1015.4
20260503042542 49 239 3.0 9.0 0.00 0.00 0.00 94 1015.3
20260503042039 49 211 3.0 9.0 0.00 0.00 0.00 94 1015.2
20260503041553 49 223 4.0 9.0 0.00 0.00 0.00 94 1015.2
20260503041040 49 232 4.0 9.0 0.00 0.00 0.00 94 1015.3
20260503040542 49 196 3.0 10.0 0.00 0.00 0.00 94 1015.3
20260503040050 49 178 4.0 10.0 0.00 0.00 0.00 94 1015.3
20260503035542 49 182 5.0 10.0 0.00 0.00 0.00 94 1015.4
20260503035042 49 207 4.0 8.0 0.00 0.00 0.00 94 1015.2
20260503034554 49 284 4.0 8.0 0.00 0.00 0.00 94 1015.3
20260503034040 49 203 4.0 9.0 0.00 0.00 0.00 94 1015.2
20260503033545 49 221 2.0 10.0 0.00 0.00 0.00 94 1015.1
20260503033100 49 215 5.0 10.0 0.00 0.00 0.00 94 1015.2
20260503032542 49 288 4.0 10.0 0.00 0.00 0.00 93 1015.1
20260503032041 49 243 4.0 10.0 0.00 0.00 0.00 93 1015.0
20260503031556 49 188 4.0 10.0 0.00 0.00 0.00 94 1015.0
20260503031039 49 211 3.0 10.0 0.00 0.00 0.00 93 1014.8
20260503030539 49 196 4.0 11.0 0.00 0.00 0.00 93 1014.8
20260503030054 49 200 4.0 11.0 0.00 0.00 0.00 93 1014.8
20260503025542 49 203 5.0 12.0 0.00 0.00 0.00 93 1014.6
20260503025040 49 212 5.0 12.0 0.00 0.00 0.00 92 1014.7
20260503024610 50 265 4.0 9.0 0.00 0.00 0.00 92 1014.7
20260503024039 50 193 4.0 9.0 0.00 0.00 0.00 92 1014.7
20260503023543 50 209 4.0 11.0 0.00 0.00 0.00 92 1014.8
20260503023047 50 233 4.0 12.0 0.00 0.00 0.00 92 1014.5
20260503022539 50 212 5.0 12.0 0.00 0.00 0.00 92 1014.6
20260503022042 50 233 4.0 12.0 0.00 0.00 0.00 92 1014.6
20260503021548 50 243 5.0 12.0 0.00 0.00 0.00 91 1014.6
20260503021042 50 196 5.0 12.0 0.00 0.00 0.00 91 1014.7
20260503020539 50 237 4.0 12.0 0.00 0.00 0.00 91 1014.8
20260503020050 50 237 5.0 12.0 0.00 0.00 0.00 90 1014.7
20260503015546 50 216 5.0 11.0 0.00 0.00 0.00 90 1014.6
20260503015041 50 211 6.0 11.0 0.00 0.00 0.00 90 1014.7
20260503014550 50 203 4.0 10.0 0.00 0.00 0.00 89 1014.8
20260503014042 50 221 5.0 11.0 0.00 0.00 0.00 89 1014.8
20260503013544 50 171 6.0 14.0 0.00 0.00 0.00 89 1014.9
20260503013049 50 213 6.0 14.0 0.00 0.00 0.00 88 1014.9
20260503012544 50 9 6.0 15.0 0.00 0.00 0.00 88 1015.0
20260503012039 51 247 7.0 15.0 0.00 0.00 0.00 87 1015.0
20260503011553 51 226 5.0 16.0 0.00 0.00 0.00 87 1015.0
20260503011040 51 205 5.0 16.0 0.00 0.00 0.00 86 1015.0
20260503010539 51 246 7.0 16.0 0.00 0.00 0.00 86 1015.0
20260503010047 52 212 6.0 17.0 0.00 0.00 0.00 85 1015.1
20260503005539 52 229 6.0 17.0 0.00 0.00 0.00 86 1015.0
20260503005039 52 225 6.0 17.0 0.00 0.00 0.00 86 1015.0
20260503004548 52 226 8.0 15.0 0.00 0.00 0.00 85 1015.0
20260503004042 53 218 4.0 10.0 0.00 0.00 0.00 85 1015.1
20260503003544 53 303 5.0 11.0 0.00 0.00 0.00 85 1015.2
20260503003051 53 241 5.0 13.0 0.00 0.00 0.00 86 1015.3
20260503002545 53 194 6.0 13.0 0.00 0.00 0.00 86 1015.2
20260503002042 53 205 5.0 13.0 0.00 0.00 0.00 84 1015.2
20260503001559 53 223 5.0 13.0 0.00 0.00 0.00 85 1015.3
20260503001041 53 221 5.0 12.0 0.00 0.00 0.00 85 1015.1
20260503000542 53 227 5.0 11.0 0.00 0.00 0.00 85 1015.2
20260503000106 54 202 4.0 10.0 0.00 0.00 0.00 84 1015.3
20260502235544 54 244 4.0 10.0 0.00 0.00 0.00 85 1015.3
20260502235043 54 225 5.0 16.0 0.00 0.00 0.00 84 1015.3
20260502234606 54 221 5.0 16.0 0.00 0.00 0.00 84 1015.3
20260502234043 54 265 4.0 14.0 0.00 0.00 0.00 84 1015.4
20260502233545 54 207 7.0 13.0 0.00 0.00 0.00 82 1015.4
20260502233106 54 196 4.0 12.0 0.00 0.00 0.00 84 1015.5
20260502232542 54 250 5.0 15.0 0.00 0.00 0.00 82 1015.5
20260502232041 55 238 6.0 15.0 0.00 0.00 0.00 83 1015.6
20260502231603 55 250 5.0 12.0 0.00 0.00 0.00 81 1015.6
20260502231046 55 273 4.0 9.0 0.00 0.00 0.00 81 1015.6
20260502230543 56 227 5.0 15.0 0.00 0.00 0.00 82 1015.7
20260502230054 55 272 6.0 15.0 0.00 0.00 0.00 81 1015.8
20260502225546 56 202 6.0 13.0 0.00 0.00 0.00 79 1015.8
20260502225042 56 225 5.0 16.0 0.00 0.00 0.00 81 1015.9
20260502224552 55 208 9.0 16.0 0.00 0.00 0.00 81 1015.9
20260502224044 56 193 5.0 14.0 0.00 0.00 0.00 82 1015.9
20260502223543 56 238 6.0 15.0 0.00 0.00 0.00 80 1016.0
20260502223052 55 221 7.0 15.0 0.00 0.00 0.00 82 1016.1
20260502222543 55 265 5.0 16.0 0.00 0.00 0.00 82 1016.2
20260502222042 55 221 7.0 16.0 0.00 0.00 0.00 82 1016.3
20260502221600 55 235 7.0 14.0 0.00 0.00 0.00 83 1016.3
20260502221043 55 186 7.0 14.0 0.00 0.00 0.00 81 1016.4
20260502220543 55 205 6.0 13.0 0.00 0.00 0.00 82 1016.4
20260502220053 54 228 5.0 12.0 0.00 0.00 0.00 82 1016.4
20260502215542 54 261 5.0 14.0 0.00 0.00 0.00 83 1016.4
20260502215044 54 223 5.0 14.0 0.00 0.00 0.00 83 1016.5
20260502214604 54 190 5.0 11.0 0.00 0.00 0.00 83 1016.5
20260502214044 54 186 5.0 14.0 0.00 0.00 0.00 84 1016.6
20260502213542 53 210 8.0 14.0 0.00 0.00 0.00 84 1016.7
20260502213053 54 232 6.0 13.0 0.00 0.00 0.00 83 1016.7
20260502212540 54 203 5.0 13.0 0.00 0.00 0.00 85 1016.6
20260502212042 53 221 6.0 12.0 0.00 0.00 0.00 85 1016.6
20260502211550 53 229 7.0 14.0 0.00 0.00 0.00 85 1016.8
20260502211042 53 205 5.0 15.0 0.00 0.00 0.00 86 1016.8
20260502210540 53 217 6.0 15.0 0.00 0.00 0.00 85 1016.8
20260502210047 53 218 5.0 14.0 0.00 0.00 0.00 86 1016.9
20260502205539 52 221 6.0 14.0 0.00 0.00 0.00 87 1017.0
20260502205039 52 238 7.0 14.0 0.00 0.00 0.00 87 1017.0
20260502204551 52 235 6.0 13.0 0.00 0.00 0.00 87 1017.1
20260502204041 52 213 5.0 12.0 0.00 0.00 0.00 88 1017.1
20260502203540 52 228 5.0 13.0 0.00 0.00 0.00 89 1017.2
20260502203055 52 219 6.0 14.0 0.00 0.00 0.00 90 1017.2
20260502202539 51 198 7.0 16.0 0.00 0.00 0.00 90 1017.2
20260502202039 51 225 6.0 16.0 0.00 0.00 0.00 90 1017.3
20260502201549 51 239 6.0 14.0 0.00 0.00 0.00 91 1017.4
20260502201039 51 171 5.0 13.0 0.00 0.00 0.00 91 1017.3
20260502200545 51 244 4.0 12.0 0.00 0.00 0.00 92 1017.4
20260502200048 51 219 4.0 11.0 0.00 0.00 0.00 92 1017.4
20260502195541 51 219 6.0 13.0 0.00 0.00 0.00 92 1017.4
20260502195040 51 175 6.0 13.0 0.00 0.00 0.00 92 1017.3
20260502194549 51 195 5.0 14.0 0.00 0.00 0.00 93 1017.4
20260502194039 51 219 5.0 14.0 0.00 0.00 0.00 93 1017.4
20260502193539 51 239 5.0 14.0 0.00 0.00 0.00 94 1017.4
20260502193050 51 211 3.0 13.0 0.00 0.00 0.00 95 1017.4
20260502192540 51 238 6.0 13.0 0.00 0.00 0.00 94 1017.4
20260502192039 51 219 5.0 13.0 0.00 0.00 0.00 95 1017.4
20260502191550 51 182 6.0 12.0 0.00 0.00 0.00 96 1017.3
20260502191038 50 271 5.0 15.0 0.00 0.00 0.00 96 1017.4
20260502190541 50 131 4.0 15.0 0.00 0.00 0.00 96 1017.4
20260502190050 50 241 7.0 15.0 0.00 0.00 0.00 96 1017.5
20260502185538 50 226 4.0 12.0 0.00 0.00 0.00 97 1017.4
20260502185041 50 195 4.0 13.0 0.00 0.00 0.00 97 1017.5
20260502184549 49 221 5.0 13.0 0.00 0.00 0.00 96 1017.4